Dillon, MT

7:45 PM MST on February 25, 2017 (GMT -0700)
Dillon

Weather History for KDLN - May, 2013

Change the Weather History Date:

Monday, May 13, 2013

  Actual Average Record
Temperature  
Mean Temperature 68 °F 50 °F  
Max Temperature 87 °F 63 °F 87 °F (2013)
Min Temperature 49 °F 36 °F 20 °F (1983)
Degree Days  
Heating Degree Days 0    
Month to date heating degree days 151  
Since 1 July heating degree days 7246  
Cooling Degree Days 3    
Month to date cooling degree days 3  
Year to date cooling degree days 3  
Growing Degree Days 18 (Base 50)    
Moisture  
Dew Point 29 °F    
Average Humidity 29    
Maximum Humidity 46    
Minimum Humidity 11    
Precipitation  
Precipitation 0.00 in 0.05 in 0.36 in (1941)
Month to date precipitation 0.05 0.62  
Year to date precipitation 0.59 2.74  
Snow  
Snow 0.00 in - - ()
Snow Depth 0.00 in    
Sea Level Pressure  
Sea Level Pressure 29.84 in    
Wind  
Wind Speed 17 mph (SW)    
Max Wind Speed 43 mph    
Max Gust Speed 55 mph    
Visibility 9 miles    
Events      
T = Trace of Precipitation, MM = Missing Value Source: NWS Daily Summary

Daily Weather History Graph

Daily Weather History Graph

Search for Another Location

Airport or City:

Trip Planner

Search our weather history database for the weather conditions in past years. The results will help you decide how hot, cold, wet, or windy it might be!

Date:

Astronomy

May. 13, 2013 Rise Set
Actual Time 6:02 AM MDT 8:51 PM MDT
Civil Twilight 5:28 AM MDT 9:25 PM MDT
Nautical Twilight 4:44 AM MDT 10:09 PM MDT
Astronomical Twilight 3:54 AM MDT 11:00 PM MDT
Moon 8:50 AM MDT (5/13) No Moon Set
Length of Visible Light 15h 57m
Length of Day
14h 49m
Waxing Crescent, 12% of the Moon is Illuminated
May 13
Waxing Crescent
May 17
First Quarter
May 24
Full
May 31
Last Quarter
Jun 8
New

Hourly Weather History & Observations

Time (MDT) Temp. Dew Point Humidity Pressure Visibility Wind Dir Wind Speed Gust Speed Precip Events Conditions
12:53 AM 60.1 °F 30.9 °F 33% 29.94 in 10.0 mi SSW 10.4 mph - N/A   Clear
1:53 AM 61.0 °F 28.9 °F 30% 29.91 in 10.0 mi South 9.2 mph - N/A   Clear
2:53 AM 53.1 °F 33.1 °F 47% 29.92 in 10.0 mi SSW 13.8 mph - N/A   Clear
3:53 AM 54.0 °F 32.0 °F 43% 29.93 in 10.0 mi SW 5.8 mph - N/A   Clear
4:53 AM 55.9 °F 30.9 °F 39% 29.93 in 10.0 mi South 5.8 mph - N/A   Clear
5:53 AM 53.1 °F 30.9 °F 43% 29.94 in 10.0 mi SSE 4.6 mph - N/A   Clear
6:53 AM 54.0 °F 32.0 °F 43% 29.95 in 10.0 mi SSE 6.9 mph - N/A   Clear
7:53 AM 60.1 °F 34.0 °F 38% 29.94 in 10.0 mi South 5.8 mph - N/A   Clear
8:53 AM 68.0 °F 36.0 °F 31% 29.93 in 10.0 mi SW 6.9 mph - N/A   Clear
9:53 AM 72.0 °F 34.0 °F 25% 29.91 in 10.0 mi SSW 8.1 mph - N/A   Clear
10:53 AM 79.0 °F 30.9 °F 17% 29.88 in 10.0 mi SW 15.0 mph 23.0 mph N/A   Clear
11:53 AM 81.0 °F 28.0 °F 14% 29.86 in 10.0 mi SW 19.6 mph 27.6 mph N/A   Clear
12:53 PM 84.0 °F 25.0 °F 12% 29.82 in 5.0 mi WSW 29.9 mph 38.0 mph N/A   Haze
2:53 PM 84.9 °F 28.9 °F 13% 29.78 in 8.0 mi SW 32.2 mph 39.1 mph N/A   Partly Cloudy
3:53 PM 84.0 °F 28.0 °F 13% 29.76 in 7.0 mi WSW 29.9 mph 42.6 mph N/A   Clear
4:53 PM 81.0 °F 28.9 °F 15% 29.74 in 9.0 mi WSW 28.8 mph 40.3 mph N/A   Partly Cloudy
5:59 PM 80.6 °F 26.6 °F 14% 29.87 in 1.8 mi SW 42.6 mph 49.5 mph N/A   Haze
6:13 PM 82.4 °F 28.4 °F 14% 29.86 in 3.0 mi SW 31.1 mph 50.6 mph N/A   Haze
6:53 PM 81.0 °F 27.0 °F 14% 29.69 in 10.0 mi WSW 34.5 mph 44.9 mph N/A   Clear
7:53 PM 77.0 °F 26.1 °F 15% 29.69 in 10.0 mi WSW 29.9 mph 35.7 mph N/A   Clear
8:53 PM 71.1 °F 27.0 °F 19% 29.69 in 10.0 mi SW 16.1 mph - N/A   Clear
9:53 PM 68.0 °F 24.1 °F 19% 29.72 in 10.0 mi SW 16.1 mph - N/A   Clear
10:53 PM 63.0 °F 24.1 °F 23% 29.73 in 10.0 mi SSW 13.8 mph - N/A   Clear
11:53 PM 59.0 °F 25.0 °F 27% 29.76 in 10.0 mi SW 9.2 mph - N/A   Clear